• Processing (Info)

  • MPEC 2012-F85 : 2012 FV35

    The following Minor Planet Electronic Circular may be linked-to from your own Web pages, but must not otherwise be redistributed electronically.

    A form allowing access to any MPEC is at the bottom of this page.


    Read MPEC 2012-F84 Read MPEC 2012-F86


    M.P.E.C. 2012-F85                                Issued 2012 Mar. 25, 22:58 UT
    
         The Minor Planet Electronic Circulars contain information on unusual
             minor planets and routine data on comets.  They are published
       on behalf of Commission 20 of the International Astronomical Union by the
              Minor Planet Center, Smithsonian Astrophysical Observatory,
                              Cambridge, MA 02138, U.S.A.
    
                 Prepared using the Tamkin Foundation Computer Network
    
                                  MPC@CFA.HARVARD.EDU
                URL https://www.minorplanetcenter.net/    ISSN 1523-6714
    
                                       2012 FV35
    
    Observations:
         K12F35V* C2012 03 24.31685 12 13 32.41 -12 32 43.2          21.2 VrEF085G96
         K12F35V  C2012 03 24.32377 12 13 32.19 -12 32 07.4          21.1 VrEF085G96
         K12F35V  C2012 03 24.33075 12 13 31.90 -12 31 31.6          21.7 VrEF085G96
         K12F35V  C2012 03 24.33773 12 13 31.65 -12 30 55.4          21.0 VrEF085G96
         K12F35V  C2012 03 24.37938 12 13 30.19 -12 27 19.9          21.5 VrEF085G96
         K12F35V  C2012 03 24.38053 12 13 30.12 -12 27 13.5          21.7 VrEF085G96
         K12F35V  C2012 03 24.38111 12 13 30.09 -12 27 10.0          21.5 VrEF085G96
         K12F35V  C2012 03 24.43261 12 13 28.51 -12 22 44.0          20.9 VrEF085G96
         K12F35V  C2012 03 24.43365 12 13 28.54 -12 22 38.7          20.5 VrEF085G96
         K12F35V KC2012 03 25.28825 12 13 26.66 -11 12 24.8          20.9 RoEF085291
         K12F35V KC2012 03 25.29057 12 13 26.59 -11 12 13.9          20.4 RoEF085291
         K12F35V KC2012 03 25.29290 12 13 26.50 -11 12 03.7                oEF085291
    
    Observer details:
    291 LPL/Spacewatch II.  Observer T. H. Bressi.  1.8-m f/2.7 reflector + CCD.
    G96 Mt. Lemmon Survey.  Observer A. R. Gibbs.  Measurers J. D. Ahern,
        E. C. Beshore, A. Boattini, A. R. Gibbs, A. D. Grauer, R. E. Hill,
        R. A. Kowalski, S. M. Larson, R. H. McNaught.  1.5-m reflector + CCD.
    
    Orbital elements:
    2012 FV35                                                Earth MOID = 0.0257 AU
    Epoch 2012 Mar. 14.0 TT = JDT 2456000.5                 MPC
    M  40.41434              (2000.0)            P               Q
    n   0.67227442     Peri.  263.61082     -0.13308637     -0.99079888
    a   1.2905406      Node   194.10871     +0.94455735     -0.11927699
    e   0.3556978      Incl.    5.79409     +0.30016567     -0.06395757
    P   1.47           H   25.2           G   0.15           U   9
    Residuals in seconds of arc
    120324 G96  0.0   0.1+    120324 G96  0.1+  0.3-    120324 G96  0.7+  0.2-
    120324 G96  0.5+  0.1+    120324 G96  0.4-  0.2+    120325 291  0.0   0.4+
    120324 G96  0.1-  0.2-    120324 G96  0.5-  0.7+    120325 291  0.1+  0.3+
    120324 G96  0.0   0.1-    120324 G96  0.2-  0.1-    120325 291  0.0   0.6-
    
    Ephemeris:
    2012 FV35                a,e,i = 1.29, 0.36, 6                   q = 0.8315
    Date    TT    R. A. (2000) Decl.     Delta      r     Elong.  Phase     V
    2012 02 24    00 13 34.8 -57 33 54   0.07685 0.9442    52.0   124.3    24.7
    ...
    2012 03 10    12 15 45.4 -54 19 53   0.05560 1.0225   120.5    56.8    21.0
    ...
    2012 03 18    12 14 29.9 -24 41 57   0.07968 1.0674   153.7    24.4    21.0
    ...
    2012 03 24    12 13 34.9 -12 59 29   0.1067  1.1017   168.4    10.5    21.2
    2012 03 25    12 13 27.9 -11 34 43   0.1116  1.1075   170.2     8.8    21.3
    2012 03 26    12 13 21.8 -10 16 52   0.1167  1.1132   171.7     7.4    21.3
    ...
    2012 04 01    12 13 07.0 -04 22 46   0.1496  1.1478   172.7     6.3    21.9
    ...
    2012 04 09    12 13 55.2 +00 12 47   0.1988  1.1936   163.7    13.7    22.9
    ...
    2012 04 24    12 19 10.4 +03 47 26   0.3067  1.2772   148.4    24.4    24.3
    
    A. U. Tomatic                (C) Copyright 2012 MPC           M.P.E.C. 2012-F85
    

    Read MPEC 2012-F84 Read MPEC 2012-F86


    MPEC number:

    Enter an MPEC number in one of the following forms:

    • 1997-B01 (the full form)
    • J97B01 (the packed version of the full form)
    • B01 (the abbreviated form)